Terminal Aerodrome Forecast
Issued by NWS Greer, SC

Home | Current Version | Previous Version | Text Only | Print | Product List | Glossary On
Versions: 1 2 3 4 5 6 7 8 9 10 11 12 13 14 15 16 17 18
000
FTUS42 KGSP 090521
TAFAVL
TAF
KAVL 090521Z 0906/1006 34012KT P6SM SCT200
      TEMPO 0914/0917 34012G20KT
     FM092300 35009KT P6SM SKC=

USA.gov is the U.S. government's official web portal to all federal, state and local government web resources and services.